{"data":{"norad_id":68169,"epoch":"2026-05-24T18:30:01.653408Z","epoch_age_seconds":91886,"freshness":"FRESH","line1":"1 68169U 26050C   26144.77085247  .00032226  00000+0  83299-3 0  9998","line2":"2 68169  53.1572 273.2210 0001041  65.9299 294.1814 15.38846789 12335","mean_motion":15.38846789,"eccentricity":0.0001041,"inclination_deg":53.1572,"raan_deg":273.221,"arg_perigee_deg":65.9299,"mean_anomaly_deg":294.1814,"bstar":0.00083299,"rev_number":1233,"period_min":93.576567225108,"perigee_km":448.80752451742,"apogee_km":450.22904234743,"semimajor_km":6827.6552834324,"source":"CELESTRAK","updated_at":"2026-05-25T13:38:21.852606Z"}}